| time (UTC) | temp F | wind direction | speed MPH | gust MPH | rain 1hr in | rain 24hr in | rain mn in | humidity % | barometer mb |
| 20260507004005 | 51 | 277 | 4.0 | 18.0 | 0.00 | 0.00 | 0.00 | 41 | 1014.4 |
| 20260507003505 | 51 | 287 | 5.0 | 17.0 | 0.00 | 0.00 | 0.00 | 41 | 1014.4 |
| 20260507003058 | 61 | 300 | 1.0 | 6.0 | 0.00 | 0.01 | 0.01 | 52 | 1014.6 |
| 20260507003018 | 52 | 255 | 7.0 | 18.0 | 0.00 | 0.00 | 0.00 | 40 | 1014.5 |
| 20260507002505 | 52 | 272 | 8.0 | 18.0 | 0.00 | 0.00 | 0.00 | 40 | 1014.5 |
| 20260507002008 | 52 | 285 | 9.0 | 16.0 | 0.00 | 0.00 | 0.00 | 40 | 1014.4 |
| 20260507001556 | 61 | 281 | 1.0 | 6.0 | 0.00 | 0.01 | 0.01 | 52 | 1014.6 |
| 20260507001519 | 52 | 304 | 8.0 | 17.0 | 0.00 | 0.00 | 0.00 | 40 | 1014.2 |
| 20260507001005 | 52 | 267 | 6.0 | 17.0 | 0.00 | 0.00 | 0.00 | 40 | 1014.0 |
| 20260507000508 | 52 | 229 | 7.0 | 14.0 | 0.00 | 0.00 | 0.00 | 39 | 1014.1 |
| 20260507000054 | 61 | 290 | 3.0 | 7.0 | 0.00 | 0.01 | 0.01 | 52 | 1014.6 |
| 20260507000023 | 52 | 291 | 4.0 | 14.0 | 0.00 | 0.00 | 0.00 | 40 | 1013.9 |
| 20260506235509 | 53 | 279 | 3.0 | 19.0 | 0.00 | 0.00 | 0.00 | 40 | 1014.1 |
| 20260506235009 | 53 | 259 | 9.0 | 19.0 | 0.00 | 0.00 | 0.00 | 39 | 1014.1 |
| 20260506234553 | 61 | 322 | 1.0 | 6.0 | 0.00 | 0.01 | 0.01 | 52 | 1014.5 |
| 20260506234528 | 53 | 11 | 7.0 | 18.0 | 0.00 | 0.00 | 0.00 | 40 | 1013.9 |
| 20260506234011 | 53 | 247 | 9.0 | 18.0 | 0.00 | 0.00 | 0.00 | 39 | 1013.8 |
| 20260506233510 | 53 | 282 | 7.0 | 15.0 | 0.00 | 0.00 | 0.00 | 39 | 1013.8 |
| 20260506233055 | 61 | 355 | 3.0 | 7.0 | 0.00 | 0.01 | 0.01 | 51 | 1014.4 |
| 20260506233026 | 54 | 234 | 8.0 | 18.0 | 0.00 | 0.00 | 0.00 | 39 | 1013.9 |
| 20260506232508 | 54 | 332 | 6.0 | 18.0 | 0.00 | 0.00 | 0.00 | 38 | 1013.8 |
| 20260506232005 | 54 | 229 | 5.0 | 14.0 | 0.00 | 0.00 | 0.00 | 39 | 1013.9 |
| 20260506231547 | 61 | 300 | 3.0 | 6.0 | 0.00 | 0.01 | 0.01 | 52 | 1014.2 |
| 20260506231521 | 54 | 262 | 9.0 | 16.0 | 0.00 | 0.00 | 0.00 | 38 | 1013.8 |
| 20260506231009 | 54 | 275 | 8.0 | 16.0 | 0.00 | 0.00 | 0.00 | 39 | 1013.8 |
| 20260506230505 | 54 | 279 | 7.0 | 16.0 | 0.00 | 0.00 | 0.00 | 39 | 1013.6 |
| 20260506230044 | 61 | 322 | 1.0 | 6.0 | 0.00 | 0.01 | 0.01 | 51 | 1013.8 |
| 20260506230028 | 54 | 225 | 5.0 | 17.0 | 0.00 | 0.00 | 0.00 | 39 | 1013.7 |
| 20260506225506 | 54 | 303 | 8.0 | 17.0 | 0.00 | 0.00 | 0.00 | 38 | 1013.6 |
| 20260506225012 | 54 | 230 | 4.0 | 15.0 | 0.00 | 0.00 | 0.00 | 40 | 1013.5 |
| 20260506224542 | 61 | 302 | 3.0 | 7.0 | 0.00 | 0.01 | 0.01 | 51 | 1013.9 |
| 20260506224524 | 54 | 259 | 7.0 | 15.0 | 0.00 | 0.00 | 0.00 | 40 | 1013.6 |
| 20260506224012 | 54 | 252 | 3.0 | 17.0 | 0.00 | 0.00 | 0.00 | 40 | 1013.4 |
| 20260506223507 | 54 | 275 | 8.0 | 17.0 | 0.00 | 0.00 | 0.00 | 39 | 1013.4 |
| 20260506223039 | 61 | 349 | 3.0 | 8.0 | 0.00 | 0.01 | 0.01 | 51 | 1013.5 |
| 20260506223026 | 54 | 305 | 7.0 | 17.0 | 0.00 | 0.00 | 0.00 | 39 | 1013.4 |
| 20260506222509 | 54 | 291 | 9.0 | 17.0 | 0.00 | 0.00 | 0.00 | 39 | 1013.5 |
| 20260506222015 | 54 | 271 | 8.0 | 15.0 | 0.00 | 0.00 | 0.00 | 38 | 1013.4 |
| 20260506221538 | 61 | 330 | 4.0 | 9.0 | 0.00 | 0.01 | 0.01 | 51 | 1013.5 |
| 20260506221528 | 54 | 296 | 9.0 | 15.0 | 0.00 | 0.00 | 0.00 | 39 | 1013.4 |
| 20260506221007 | 54 | 315 | 6.0 | 25.0 | 0.00 | 0.00 | 0.00 | 40 | 1013.8 |
| 20260506220503 | 55 | 279 | 10.0 | 25.0 | 0.00 | 0.00 | 0.00 | 39 | 1013.4 |
| 20260506220039 | 61 | 307 | 3.0 | 6.0 | 0.00 | 0.01 | 0.01 | 51 | 1013.9 |
| 20260506220022 | 55 | 32 | 5.0 | 14.0 | 0.00 | 0.00 | 0.00 | 40 | 1013.3 |
| 20260506215506 | 55 | 234 | 6.0 | 14.0 | 0.00 | 0.00 | 0.00 | 40 | 1013.3 |
| 20260506215007 | 54 | 279 | 3.0 | 17.0 | 0.00 | 0.00 | 0.00 | 41 | 1013.2 |
| 20260506214538 | 61 | 300 | 3.0 | 9.0 | 0.00 | 0.01 | 0.01 | 51 | 1013.6 |
| 20260506214523 | 55 | 304 | 9.0 | 17.0 | 0.00 | 0.00 | 0.00 | 38 | 1013.1 |
| 20260506214007 | 56 | 259 | 7.0 | 17.0 | 0.00 | 0.00 | 0.00 | 38 | 1013.1 |
| 20260506213507 | 56 | 253 | 6.0 | 14.0 | 0.00 | 0.00 | 0.00 | 38 | 1013.1 |
| 20260506213033 | 61 | 309 | 2.0 | 8.0 | 0.00 | 0.01 | 0.01 | 49 | 1014.0 |
| 20260506213024 | 56 | 257 | 7.0 | 16.0 | 0.00 | 0.00 | 0.00 | 38 | 1013.0 |
| 20260506212506 | 56 | 239 | 8.0 | 16.0 | 0.00 | 0.00 | 0.00 | 38 | 1012.9 |
| 20260506212010 | 55 | 304 | 6.0 | 13.0 | 0.00 | 0.00 | 0.00 | 40 | 1013.0 |
| 20260506211532 | 60 | 351 | 2.0 | 6.0 | 0.00 | 0.01 | 0.01 | 49 | 1014.3 |
| 20260506211530 | 55 | 250 | 6.0 | 16.0 | 0.00 | 0.00 | 0.00 | 39 | 1013.1 |
| 20260506211004 | 55 | 288 | 7.0 | 16.0 | 0.00 | 0.00 | 0.00 | 39 | 1013.1 |
| 20260506210507 | 55 | 267 | 6.0 | 16.0 | 0.00 | 0.00 | 0.00 | 39 | 1013.1 |
| 20260506210026 | 59 | 331 | 1.0 | 7.0 | 0.00 | 0.01 | 0.01 | 50 | 1014.1 |
| 20260506210016 | 55 | 317 | 9.0 | 16.0 | 0.00 | 0.00 | 0.00 | 37 | 1013.1 |
| 20260506205508 | 56 | 280 | 7.0 | 16.0 | 0.00 | 0.00 | 0.00 | 37 | 1013.0 |
| 20260506205006 | 56 | 221 | 4.0 | 12.0 | 0.00 | 0.00 | 0.00 | 37 | 1012.9 |
| 20260506204524 | 59 | 304 | 3.0 | 8.0 | 0.00 | 0.01 | 0.01 | 47 | 1014.1 |
| 20260506204505 | 56 | 281 | 5.0 | 14.0 | 0.00 | 0.00 | 0.00 | 35 | 1012.8 |
| 20260506204003 | 56 | 263 | 7.0 | 14.0 | 0.00 | 0.00 | 0.00 | 34 | 1013.0 |
| 20260506203503 | 57 | 256 | 6.0 | 17.0 | 0.00 | 0.00 | 0.00 | 33 | 1013.1 |
| 20260506203022 | 58 | 301 | 3.0 | 7.0 | 0.00 | 0.01 | 0.01 | 48 | 1014.4 |
| 20260506203010 | 57 | 219 | 7.0 | 18.0 | 0.00 | 0.00 | 0.00 | 33 | 1013.1 |
| 20260506202503 | 57 | 237 | 7.0 | 18.0 | 0.00 | 0.00 | 0.00 | 34 | 1013.0 |
| 20260506202003 | 57 | 233 | 7.0 | 16.0 | 0.00 | 0.00 | 0.00 | 35 | 1013.1 |
| 20260506201521 | 58 | 308 | 4.0 | 8.0 | 0.00 | 0.01 | 0.01 | 46 | 1014.7 |
| 20260506201512 | 57 | 296 | 6.0 | 16.0 | 0.00 | 0.00 | 0.00 | 33 | 1013.1 |
| 20260506201003 | 58 | 231 | 8.0 | 16.0 | 0.00 | 0.00 | 0.00 | 33 | 1013.2 |
| 20260506200506 | 58 | 198 | 9.0 | 16.0 | 0.00 | 0.00 | 0.00 | 33 | 1013.3 |
| 20260506200021 | 57 | 255 | 3.0 | 9.0 | 0.00 | 0.01 | 0.01 | 46 | 1014.6 |
| 20260506200016 | 58 | 283 | 7.0 | 17.0 | 0.00 | 0.00 | 0.00 | 32 | 1013.3 |
| 20260506195504 | 57 | 220 | 7.0 | 17.0 | 0.00 | 0.00 | 0.00 | 33 | 1013.6 |
| 20260506195007 | 57 | 261 | 6.0 | 18.0 | 0.00 | 0.00 | 0.00 | 35 | 1013.4 |
| 20260506194522 | 56 | 256 | 7.0 | 18.0 | 0.00 | 0.00 | 0.00 | 35 | 1013.6 |
| 20260506194515 | 56 | 293 | 5.0 | 10.0 | 0.00 | 0.01 | 0.01 | 45 | 1014.5 |
| 20260506194006 | 56 | 290 | 9.0 | 17.0 | 0.00 | 0.00 | 0.00 | 35 | 1013.6 |
| 20260506193505 | 55 | 298 | 5.0 | 14.0 | 0.00 | 0.00 | 0.00 | 38 | 1013.5 |
| 20260506193012 | 56 | 277 | 5.0 | 12.0 | 0.00 | 0.01 | 0.01 | 45 | 1014.5 |
| 20260506193004 | 55 | 257 | 7.0 | 13.0 | 0.00 | 0.00 | 0.00 | 37 | 1013.5 |
| 20260506192503 | 55 | 265 | 4.0 | 13.0 | 0.00 | 0.00 | 0.00 | 38 | 1013.6 |
| 20260506192003 | 55 | 312 | 4.0 | 13.0 | 0.00 | 0.00 | 0.00 | 37 | 1013.6 |
| 20260506191511 | 56 | 278 | 7.0 | 14.0 | 0.00 | 0.01 | 0.01 | 44 | 1014.7 |
| 20260506191506 | 55 | 242 | 5.0 | 13.0 | 0.00 | 0.00 | 0.00 | 37 | 1013.8 |
| 20260506191004 | 55 | 265 | 4.0 | 12.0 | 0.00 | 0.00 | 0.00 | 37 | 1013.7 |
| 20260506190505 | 55 | 225 | 4.0 | 14.0 | 0.00 | 0.00 | 0.00 | 37 | 1013.7 |
| 20260506190014 | 55 | 280 | 6.0 | 15.0 | 0.00 | 0.00 | 0.00 | 36 | 1013.7 |
| 20260506190007 | 56 | 304 | 8.0 | 13.0 | 0.00 | 0.01 | 0.01 | 44 | 1014.5 |
| 20260506185503 | 55 | 275 | 8.0 | 15.0 | 0.00 | 0.00 | 0.00 | 37 | 1013.8 |
| 20260506185006 | 55 | 263 | 7.0 | 12.0 | 0.00 | 0.00 | 0.00 | 37 | 1013.7 |
| 20260506184524 | 55 | 198 | 6.0 | 17.0 | 0.00 | 0.00 | 0.00 | 37 | 1013.8 |
| 20260506184506 | 56 | 329 | 7.0 | 15.0 | 0.00 | 0.01 | 0.01 | 44 | 1014.8 |
| 20260506184006 | 55 | 240 | 5.0 | 17.0 | 0.00 | 0.00 | 0.00 | 37 | 1013.7 |
| 20260506183507 | 55 | 236 | 5.0 | 13.0 | 0.00 | 0.00 | 0.00 | 38 | 1013.6 |
| 20260506183125 | 56 | 295 | 6.0 | 9.0 | 0.00 | 0.01 | 0.01 | 41 | 1014.9 |
| 20260506183022 | 55 | 239 | 2.0 | 15.0 | 0.00 | 0.00 | 0.00 | 39 | 1013.6 |
| 20260506182507 | 55 | 244 | 3.0 | 17.0 | 0.00 | 0.00 | 0.00 | 38 | 1013.6 |
| 20260506182002 | 55 | 267 | 8.0 | 17.0 | 0.00 | 0.00 | 0.00 | 37 | 1013.8 |
| 20260506181507 | 55 | 226 | 4.0 | 17.0 | 0.00 | 0.00 | 0.00 | 37 | 1013.7 |
| 20260506181501 | 56 | 297 | 6.0 | 10.0 | 0.00 | 0.01 | 0.01 | 42 | 1014.9 |
| 20260506181004 | 55 | 277 | 9.0 | 16.0 | 0.00 | 0.00 | 0.00 | 37 | 1013.8 |
| 20260506180503 | 55 | 231 | 5.0 | 14.0 | 0.00 | 0.00 | 0.00 | 37 | 1013.7 |
| 20260506180116 | 55 | 314 | 5.0 | 13.0 | 0.00 | 0.01 | 0.01 | 42 | 1015.1 |
| 20260506180011 | 55 | 281 | 7.0 | 14.0 | 0.00 | 0.00 | 0.00 | 37 | 1013.5 |
| 20260506175504 | 55 | 290 | 4.0 | 13.0 | 0.00 | 0.00 | 0.00 | 37 | 1013.4 |
| 20260506175004 | 55 | 279 | 5.0 | 15.0 | 0.00 | 0.00 | 0.00 | 37 | 1013.7 |
| 20260506174656 | 55 | 313 | 5.0 | 9.0 | 0.00 | 0.01 | 0.01 | 42 | 1015.0 |
| 20260506174516 | 55 | 259 | 8.0 | 15.0 | 0.00 | 0.00 | 0.00 | 37 | 1013.9 |
| 20260506174004 | 55 | 267 | 6.0 | 14.0 | 0.00 | 0.00 | 0.00 | 38 | 1014.0 |
| 20260506173505 | 55 | 289 | 5.0 | 17.0 | 0.00 | 0.00 | 0.00 | 37 | 1013.9 |
| 20260506173124 | 55 | 307 | 2.0 | 6.0 | 0.00 | 0.01 | 0.01 | 42 | 1015.0 |
| 20260506173022 | 55 | 277 | 3.0 | 17.0 | 0.00 | 0.00 | 0.00 | 36 | 1014.0 |
| 20260506172508 | 56 | 213 | 5.0 | 17.0 | 0.00 | 0.00 | 0.00 | 37 | 1014.0 |
| 20260506172008 | 56 | 275 | 6.0 | 12.0 | 0.00 | 0.00 | 0.00 | 37 | 1013.9 |
| 20260506171551 | 55 | 8 | 0.0 | 8.0 | 0.00 | 0.01 | 0.01 | 42 | 1014.6 |
| 20260506171525 | 55 | 232 | 5.0 | 12.0 | 0.00 | 0.00 | 0.00 | 39 | 1014.0 |
| 20260506171009 | 54 | 252 | 5.0 | 16.0 | 0.00 | 0.00 | 0.00 | 38 | 1014.0 |
| 20260506170502 | 54 | 256 | 7.0 | 16.0 | 0.00 | 0.00 | 0.00 | 37 | 1014.2 |
| 20260506170048 | 55 | 304 | 6.0 | 16.0 | 0.00 | 0.01 | 0.01 | 42 | 1013.2 |
| 20260506170011 | 54 | 261 | 8.0 | 16.0 | 0.00 | 0.00 | 0.00 | 37 | 1014.2 |
| 20260506165503 | 55 | 258 | 3.0 | 14.0 | 0.00 | 0.00 | 0.00 | 37 | 1014.1 |
| 20260506165005 | 55 | 279 | 7.0 | 14.0 | 0.00 | 0.00 | 0.00 | 37 | 1014.2 |
| 20260506164648 | 54 | 334 | 6.0 | 13.0 | 0.00 | 0.01 | 0.01 | 38 | 1013.1 |
| 20260506164512 | 55 | 282 | 5.0 | 12.0 | 0.00 | 0.00 | 0.00 | 38 | 1014.1 |
| 20260506164004 | 55 | 244 | 6.0 | 13.0 | 0.00 | 0.00 | 0.00 | 38 | 1014.1 |
| 20260506163503 | 55 | 267 | 7.0 | 13.0 | 0.00 | 0.00 | 0.00 | 39 | 1014.1 |
| 20260506163045 | 54 | 13 | 5.0 | 10.0 | 0.00 | 0.01 | 0.01 | 37 | 1013.8 |
| 20260506163022 | 54 | 223 | 5.0 | 10.0 | 0.00 | 0.00 | 0.00 | 39 | 1013.9 |
| 20260506162507 | 54 | 234 | 5.0 | 10.0 | 0.00 | 0.00 | 0.00 | 37 | 1014.0 |
| 20260506162010 | 54 | 284 | 3.0 | 11.0 | 0.00 | 0.00 | 0.00 | 38 | 1013.9 |
| 20260506161550 | 53 | 344 | 2.0 | 7.0 | 0.01 | 0.01 | 0.01 | 38 | 1014.9 |
| 20260506161524 | 54 | 284 | 5.0 | 11.0 | 0.00 | 0.00 | 0.00 | 38 | 1014.0 |
| 20260506161007 | 54 | 252 | 4.0 | 12.0 | 0.00 | 0.00 | 0.00 | 39 | 1013.9 |
| 20260506160507 | 54 | 295 | 5.0 | 12.0 | 0.00 | 0.00 | 0.00 | 38 | 1013.9 |
| 20260506160039 | 53 | 51 | 3.0 | 8.0 | 0.01 | 0.01 | 0.01 | 39 | 1014.0 |
| 20260506160026 | 53 | 255 | 4.0 | 11.0 | 0.00 | 0.00 | 0.00 | 37 | 1014.0 |
| 20260506155508 | 54 | 333 | 5.0 | 11.0 | 0.00 | 0.00 | 0.00 | 38 | 1014.1 |
| 20260506155003 | 54 | 238 | 4.0 | 12.0 | 0.00 | 0.00 | 0.00 | 39 | 1014.0 |
| 20260506154537 | 53 | 324 | 6.0 | 10.0 | 0.01 | 0.01 | 0.01 | 40 | 1013.6 |
| 20260506154511 | 54 | 294 | 5.0 | 14.0 | 0.00 | 0.00 | 0.00 | 38 | 1014.0 |
| 20260506154003 | 54 | 283 | 4.0 | 14.0 | 0.00 | 0.00 | 0.00 | 37 | 1014.1 |
| 20260506153502 | 53 | 158 | 2.0 | 13.0 | 0.00 | 0.00 | 0.00 | 40 | 1014.0 |
| 20260506153033 | 53 | 20 | 1.0 | 6.0 | 0.01 | 0.01 | 0.01 | 47 | 1013.3 |
| 20260506153016 | 53 | 305 | 2.0 | 13.0 | 0.00 | 0.00 | 0.00 | 38 | 1013.9 |
| 20260506152504 | 53 | 267 | 5.0 | 13.0 | 0.00 | 0.00 | 0.00 | 40 | 1014.1 |
| 20260506152008 | 53 | 113 | 3.0 | 10.0 | 0.00 | 0.00 | 0.00 | 39 | 1014.2 |
| 20260506151531 | 53 | 65 | 3.0 | 8.0 | 0.00 | 0.00 | 0.00 | 52 | 1011.7 |
| 20260506151522 | 53 | 273 | 2.0 | 12.0 | 0.00 | 0.00 | 0.00 | 39 | 1014.1 |
| 20260506151008 | 53 | 263 | 6.0 | 12.0 | 0.00 | 0.00 | 0.00 | 38 | 1014.2 |
| 20260506150508 | 53 | 229 | 2.0 | 14.0 | 0.00 | 0.00 | 0.00 | 39 | 1014.1 |
| 20260506150026 | 53 | 267 | 7.0 | 14.0 | 0.00 | 0.00 | 0.00 | 39 | 1014.2 |
| 20260506145517 | 53 | 237 | 4.0 | 11.0 | 0.00 | 0.00 | 0.00 | 38 | 1014.2 |
| 20260506145010 | 52 | 287 | 5.0 | 11.0 | 0.00 | 0.00 | 0.00 | 40 | 1014.1 |
| 20260506144541 | 52 | 265 | 4.0 | 13.0 | 0.00 | 0.00 | 0.00 | 39 | 1014.2 |
| 20260506144522 | 54 | 302 | 5.0 | 9.0 | 0.00 | 0.00 | 0.00 | 59 | 1015.2 |
| 20260506144004 | 52 | 285 | 3.0 | 13.0 | 0.00 | 0.00 | 0.00 | 39 | 1014.3 |
| 20260506143504 | 52 | 273 | 7.0 | 12.0 | 0.00 | 0.00 | 0.00 | 38 | 1014.3 |
| 20260506143023 | 55 | 296 | 5.0 | 11.0 | 0.00 | 0.00 | 0.00 | 58 | 1014.2 |
| 20260506143015 | 53 | 234 | 5.0 | 11.0 | 0.00 | 0.00 | 0.00 | 38 | 1014.3 |
| 20260506142504 | 53 | 268 | 4.0 | 9.0 | 0.00 | 0.00 | 0.00 | 41 | 1014.3 |
| 20260506142004 | 53 | 204 | 5.0 | 9.0 | 0.00 | 0.00 | 0.00 | 41 | 1014.3 |
| 20260506141517 | 52 | 220 | 4.0 | 9.0 | 0.00 | 0.00 | 0.00 | 39 | 1014.4 |
| 20260506141514 | 55 | 281 | 8.0 | 15.0 | 0.00 | 0.00 | 0.00 | 57 | 1015.3 |
| 20260506141009 | 52 | 200 | 2.0 | 6.0 | 0.00 | 0.00 | 0.00 | 42 | 1014.2 |
| 20260506140505 | 52 | 202 | 2.0 | 6.0 | 0.00 | 0.00 | 0.00 | 41 | 1014.2 |
| 20260506140036 | 52 | 275 | 1.0 | 5.0 | 0.00 | 0.00 | 0.00 | 42 | 1014.2 |
| 20260506140009 | 56 | 278 | 9.0 | 14.0 | 0.00 | 0.00 | 0.00 | 57 | 1014.2 |
| 20260506135507 | 52 | 252 | 0.0 | 5.0 | 0.00 | 0.00 | 0.00 | 43 | 1014.1 |
| 20260506135014 | 52 | 186 | 1.0 | 4.0 | 0.00 | 0.00 | 0.00 | 45 | 1014.1 |
| 20260506134531 | 51 | 195 | 0.0 | 4.0 | 0.00 | 0.00 | 0.00 | 45 | 1014.0 |
| 20260506134503 | 56 | 323 | 4.0 | 10.0 | 0.00 | 0.00 | 0.00 | 56 | 1013.0 |
| 20260506134006 | 51 | 243 | 0.0 | 4.0 | 0.00 | 0.00 | 0.00 | 47 | 1013.9 |
| 20260506133509 | 51 | 202 | 0.0 | 4.0 | 0.00 | 0.00 | 0.00 | 49 | 1013.8 |
| 20260506133101 | 57 | 324 | 4.0 | 10.0 | 0.00 | 0.00 | 0.00 | 56 | 1012.6 |
| 20260506133028 | 50 | 216 | 0.0 | 2.0 | 0.00 | 0.00 | 0.00 | 51 | 1013.7 |
| 20260506132503 | 50 | 197 | 0.0 | 2.0 | 0.00 | 0.00 | 0.00 | 52 | 1013.6 |
| 20260506132003 | 50 | 214 | 0.0 | 2.0 | 0.00 | 0.00 | 0.00 | 53 | 1013.6 |
| 20260506131557 | 57 | 311 | 3.0 | 8.0 | 0.00 | 0.00 | 0.00 | 57 | 1012.5 |
| 20260506131519 | 49 | 244 | 0.0 | 2.0 | 0.00 | 0.00 | 0.00 | 56 | 1013.5 |
| 20260506131007 | 49 | 244 | 0.0 | 2.0 | 0.00 | 0.00 | 0.00 | 57 | 1013.6 |
| 20260506130507 | 49 | 244 | 0.0 | 1.0 | 0.00 | 0.00 | 0.00 | 61 | 1013.7 |
| 20260506130053 | 57 | 306 | 3.0 | 11.0 | 0.00 | 0.00 | 0.00 | 57 | 1012.2 |
| 20260506130018 | 48 | 244 | 0.0 | 2.0 | 0.00 | 0.00 | 0.00 | 63 | 1013.7 |
| 20260506125508 | 47 | 244 | 0.0 | 2.0 | 0.00 | 0.00 | 0.00 | 64 | 1013.6 |
| 20260506125007 | 47 | 244 | 0.0 | 2.0 | 0.00 | 0.01 | 0.00 | 66 | 1013.5 |
| 20260506124548 | 57 | 333 | 6.0 | 12.0 | 0.00 | 0.00 | 0.00 | 57 | 1011.8 |
| 20260506124523 | 46 | 309 | 0.0 | 1.0 | 0.00 | 0.01 | 0.00 | 69 | 1013.3 |
| 20260506124007 | 46 | 309 | 0.0 | 1.0 | 0.00 | 0.01 | 0.00 | 70 | 1013.2 |
| 20260506123507 | 46 | 309 | 0.0 | 1.0 | 0.00 | 0.02 | 0.00 | 71 | 1013.1 |
| 20260506123043 | 0 | 0.0 | 0.0 | 0.00 | 0.00 | 0.00 | 1011.8 | ||
| 20260506123036 | 45 | 309 | 0.0 | 1.0 | 0.00 | 0.02 | 0.00 | 72 | 1013.2 |
| 20260506122510 | 45 | 309 | 0.0 | 1.0 | 0.00 | 0.02 | 0.00 | 73 | 1013.1 |
| 20260506122012 | 45 | 309 | 0.0 | 1.0 | 0.00 | 0.02 | 0.00 | 73 | 1013.1 |
| 20260506121538 | 0 | 0.0 | 0.0 | 0.00 | 0.00 | 0.00 | 1011.5 | ||
| 20260506121512 | 45 | 309 | 0.0 | 1.0 | 0.00 | 0.02 | 0.00 | 74 | 1012.9 |
| 20260506121003 | 44 | 309 | 0.0 | 0.0 | 0.00 | 0.03 | 0.00 | 76 | 1013.0 |
| 20260506120503 | 44 | 309 | 0.0 | 0.0 | 0.00 | 0.03 | 0.00 | 77 | 1012.9 |
| 20260506120032 | 0 | 0.0 | 0.0 | 0.00 | 0.00 | 0.00 | 1011.3 | ||
| 20260506120026 | 44 | 309 | 0.0 | 0.0 | 0.00 | 0.04 | 0.00 | 79 | 1012.9 |
| 20260506115514 | 43 | 309 | 0.0 | 0.0 | 0.00 | 0.04 | 0.00 | 82 | 1012.9 |
| 20260506115006 | 43 | 309 | 0.0 | 0.0 | 0.00 | 0.04 | 0.00 | 84 | 1012.9 |
| 20260506114527 | 0 | 0.0 | 0.0 | 0.00 | 0.00 | 0.00 | 1011.1 | ||
| 20260506114523 | 43 | 309 | 0.0 | 0.0 | 0.00 | 0.05 | 0.00 | 85 | 1012.9 |
| 20260506114012 | 43 | 309 | 0.0 | 0.0 | 0.00 | 0.05 | 0.00 | 85 | 1012.8 |
| 20260506113507 | 42 | 309 | 0.0 | 0.0 | 0.00 | 0.06 | 0.00 | 86 | 1012.7 |
| 20260506113030 | 41 | 309 | 0.0 | 0.0 | 0.00 | 0.06 | 0.00 | 85 | 1012.7 |
| 20260506113023 | 0 | 0.0 | 0.0 | 0.00 | 0.00 | 0.00 | 1011.2 | ||
| 20260506112509 | 41 | 309 | 0.0 | 0.0 | 0.00 | 0.06 | 0.00 | 85 | 1012.7 |
| 20260506112009 | 41 | 309 | 0.0 | 0.0 | 0.00 | 0.06 | 0.00 | 84 | 1012.7 |
| 20260506111527 | 41 | 309 | 0.0 | 0.0 | 0.00 | 0.06 | 0.00 | 83 | 1012.6 |
| 20260506111517 | 0 | 0.0 | 0.0 | 0.00 | 0.00 | 0.00 | 1010.9 | ||
| 20260506111013 | 41 | 309 | 0.0 | 0.0 | 0.00 | 0.06 | 0.00 | 83 | 1012.5 |
| 20260506110511 | 41 | 309 | 0.0 | 0.0 | 0.00 | 0.06 | 0.00 | 82 | 1012.6 |
| 20260506110016 | 41 | 309 | 0.0 | 0.0 | 0.00 | 0.06 | 0.00 | 82 | 1012.5 |
| 20260506110014 | 0 | 0.0 | 0.0 | 0.00 | 0.00 | 0.00 | 1010.6 | ||
| 20260506105505 | 41 | 309 | 0.0 | 0.0 | 0.00 | 0.06 | 0.00 | 82 | 1012.5 |
| 20260506105004 | 41 | 309 | 0.0 | 0.0 | 0.00 | 0.06 | 0.00 | 82 | 1012.4 |
| 20260506104524 | 41 | 309 | 0.0 | 0.0 | 0.00 | 0.06 | 0.00 | 82 | 1012.3 |
| 20260506104507 | 0 | 0.0 | 0.0 | 0.00 | 0.00 | 0.00 | 1010.2 | ||
| 20260506104002 | 41 | 309 | 0.0 | 0.0 | 0.00 | 0.06 | 0.00 | 82 | 1012.2 |
| 20260506103503 | 41 | 309 | 0.0 | 0.0 | 0.00 | 0.06 | 0.00 | 82 | 1012.0 |
| 20260506103003 | 41 | 309 | 0.0 | 0.0 | 0.00 | 0.06 | 0.00 | 81 | 1012.0 |
| 20260506103001 | 0 | 0.0 | 0.0 | 0.00 | 0.00 | 0.00 | 1010.3 | ||
| 20260506102503 | 41 | 309 | 0.0 | 0.0 | 0.00 | 0.06 | 0.00 | 81 | 1011.8 |
| 20260506102004 | 42 | 309 | 0.0 | 0.0 | 0.00 | 0.06 | 0.00 | 80 | 1011.8 |
| 20260506101556 | 0 | 0.0 | 0.0 | 0.00 | 0.00 | 0.00 | 1010.1 | ||
| 20260506101508 | 42 | 309 | 0.0 | 0.0 | 0.00 | 0.06 | 0.00 | 80 | 1011.7 |
| 20260506101002 | 42 | 309 | 0.0 | 0.0 | 0.00 | 0.06 | 0.00 | 79 | 1011.7 |
| 20260506100502 | 42 | 309 | 0.0 | 0.0 | 0.00 | 0.06 | 0.00 | 79 | 1011.7 |
| 20260506100057 | 0 | 0.0 | 0.0 | 0.00 | 0.00 | 0.00 | 1009.7 | ||
| 20260506100017 | 42 | 309 | 0.0 | 0.0 | 0.00 | 0.06 | 0.00 | 78 | 1011.8 |
| 20260506095504 | 42 | 309 | 0.0 | 0.0 | 0.00 | 0.06 | 0.00 | 78 | 1011.8 |
| 20260506095007 | 42 | 309 | 0.0 | 0.0 | 0.00 | 0.06 | 0.00 | 78 | 1011.8 |
| 20260506094548 | 0 | 0.0 | 0.0 | 0.00 | 0.00 | 0.00 | 1009.6 | ||
| 20260506094519 | 42 | 309 | 0.0 | 0.0 | 0.00 | 0.06 | 0.00 | 77 | 1011.8 |
| 20260506094008 | 42 | 309 | 0.0 | 0.0 | 0.00 | 0.06 | 0.00 | 76 | 1011.8 |
| 20260506093508 | 42 | 309 | 0.0 | 0.0 | 0.00 | 0.06 | 0.00 | 75 | 1011.8 |
| 20260506093042 | 0 | 0.0 | 0.0 | 0.00 | 0.00 | 0.00 | 1009.3 | ||
| 20260506093002 | 42 | 309 | 0.0 | 0.0 | 0.00 | 0.06 | 0.00 | 75 | 1011.8 |
| 20260506092503 | 42 | 309 | 0.0 | 0.0 | 0.00 | 0.06 | 0.00 | 75 | 1011.7 |
| 20260506092003 | 42 | 309 | 0.0 | 0.0 | 0.00 | 0.06 | 0.00 | 75 | 1011.6 |
| 20260506091535 | 0 | 0.0 | 0.0 | 0.00 | 0.00 | 0.00 | 1009.4 | ||
| 20260506091505 | 42 | 309 | 0.0 | 0.0 | 0.00 | 0.06 | 0.00 | 74 | 1011.7 |
| 20260506091007 | 43 | 309 | 0.0 | 0.0 | 0.00 | 0.06 | 0.00 | 73 | 1011.9 |
| 20260506090506 | 43 | 309 | 0.0 | 0.0 | 0.00 | 0.06 | 0.00 | 73 | 1011.9 |
| 20260506090029 | 0 | 0.0 | 0.0 | 0.00 | 0.00 | 0.00 | 1009.3 | ||
| 20260506090009 | 43 | 309 | 0.0 | 1.0 | 0.00 | 0.06 | 0.00 | 71 | 1011.9 |
| 20260506085506 | 43 | 309 | 0.0 | 1.0 | 0.00 | 0.06 | 0.00 | 71 | 1012.0 |
| 20260506085002 | 43 | 321 | 0.0 | 0.0 | 0.00 | 0.06 | 0.00 | 71 | 1011.9 |
| 20260506084533 | 0 | 0.0 | 0.0 | 0.00 | 0.00 | 0.00 | 1009.2 | ||
| 20260506084514 | 43 | 321 | 0.0 | 0.0 | 0.00 | 0.06 | 0.00 | 70 | 1011.6 |
| 20260506084003 | 43 | 321 | 0.0 | 0.0 | 0.00 | 0.06 | 0.00 | 69 | 1011.5 |
| 20260506083503 | 44 | 321 | 0.0 | 0.0 | 0.00 | 0.06 | 0.00 | 68 | 1011.4 |
| 20260506083028 | 44 | 321 | 0.0 | 0.0 | 0.00 | 0.06 | 0.00 | 67 | 1011.6 |
| 20260506083020 | 0 | 0.0 | 0.0 | 0.00 | 0.00 | 0.00 | 1009.2 | ||
| 20260506082511 | 44 | 321 | 0.0 | 0.0 | 0.00 | 0.06 | 0.00 | 66 | 1011.5 |
| 20260506082007 | 44 | 321 | 0.0 | 0.0 | 0.00 | 0.06 | 0.00 | 66 | 1011.4 |
| 20260506081517 | 0 | 0.0 | 0.0 | 0.00 | 0.00 | 0.00 | 1009.1 | ||
| 20260506081507 | 45 | 321 | 0.0 | 1.0 | 0.00 | 0.06 | 0.00 | 63 | 1011.5 |
| 20260506081003 | 45 | 321 | 0.0 | 1.0 | 0.00 | 0.06 | 0.00 | 62 | 1011.5 |
| 20260506080504 | 45 | 321 | 0.0 | 0.0 | 0.00 | 0.06 | 0.00 | 62 | 1011.4 |
| 20260506073503 | 46 | 231 | 0.0 | 2.0 | 0.00 | 0.06 | 0.00 | 58 | 1011.4 |
| 20260506073112 | 0 | 0.0 | 0.0 | 0.00 | 0.00 | 0.00 | 1008.7 | ||
| 20260506073016 | 46 | 346 | 0.0 | 3.0 | 0.00 | 0.06 | 0.00 | 57 | 1011.2 |
| 20260506072507 | 46 | 30 | 0.0 | 3.0 | 0.00 | 0.06 | 0.00 | 57 | 1011.2 |
| 20260506072011 | 46 | 38 | 1.0 | 3.0 | 0.00 | 0.06 | 0.00 | 56 | 1011.2 |
| 20260506071553 | 0 | 0.0 | 0.0 | 0.00 | 0.00 | 0.00 | 1008.8 | ||
| 20260506071523 | 47 | 312 | 0.0 | 2.0 | 0.00 | 0.06 | 0.00 | 55 | 1011.2 |
| 20260506071007 | 47 | 317 | 0.0 | 5.0 | 0.00 | 0.06 | 0.00 | 56 | 1011.2 |
| 20260506070510 | 47 | 48 | 0.0 | 5.0 | 0.00 | 0.06 | 0.00 | 56 | 1011.3 |
| 20260506062503 | 48 | 55 | 2.0 | 5.0 | 0.00 | 0.06 | 0.00 | 49 | 1011.1 |
| 20260506062005 | 48 | 48 | 1.0 | 6.0 | 0.00 | 0.06 | 0.00 | 49 | 1011.1 |
| 20260506061532 | 0 | 0.0 | 0.0 | 0.00 | 0.00 | 0.00 | 1009.0 | ||
| 20260506061520 | 49 | 55 | 2.0 | 6.0 | 0.00 | 0.06 | 0.00 | 48 | 1011.0 |
| 20260506061007 | 49 | 37 | 0.0 | 4.0 | 0.00 | 0.06 | 0.00 | 48 | 1011.0 |
| 20260506060509 | 49 | 9 | 1.0 | 4.0 | 0.00 | 0.06 | 0.00 | 47 | 1011.0 |
| 20260506051008 | 51 | 5 | 0.0 | 4.0 | 0.00 | 0.06 | 0.00 | 46 | 1010.7 |
| 20260506050505 | 51 | 37 | 1.0 | 4.0 | 0.00 | 0.06 | 0.00 | 45 | 1010.6 |
| 20260506045006 | 52 | 50 | 1.0 | 4.0 | 0.00 | 0.06 | 0.06 | 45 | 1010.4 |
| 20260506044537 | 52 | 347 | 1.0 | 5.0 | 0.00 | 0.06 | 0.06 | 44 | 1010.7 |
| 20260506044511 | 68 | 318 | 3.0 | 7.0 | 0.00 | 0.00 | 0.00 | 54 | 1008.7 |
| 20260506044008 | 52 | 290 | 2.0 | 5.0 | 0.00 | 0.06 | 0.06 | 44 | 1010.4 |
| 20260506043505 | 52 | 327 | 1.0 | 4.0 | 0.00 | 0.06 | 0.06 | 44 | 1010.8 |
| 20260506043007 | 52 | 5 | 1.0 | 4.0 | 0.00 | 0.06 | 0.06 | 43 | 1010.7 |
| 20260506042503 | 52 | 21 | 1.0 | 5.0 | 0.00 | 0.06 | 0.06 | 44 | 1010.7 |
| 20260506042006 | 52 | 49 | 1.0 | 5.0 | 0.00 | 0.06 | 0.06 | 44 | 1010.7 |
| 20260506041514 | 52 | 22 | 1.0 | 7.0 | 0.00 | 0.06 | 0.06 | 43 | 1010.7 |
| 20260506041503 | 69 | 286 | 5.0 | 7.0 | 0.00 | 0.00 | 0.00 | 54 | 1008.5 |
| 20260506041007 | 52 | 319 | 2.0 | 7.0 | 0.00 | 0.06 | 0.06 | 43 | 1010.8 |
| 20260506040505 | 52 | 12 | 2.0 | 6.0 | 0.00 | 0.06 | 0.06 | 43 | 1010.6 |
| 20260506040101 | 70 | 277 | 4.0 | 8.0 | 0.00 | 0.00 | 0.00 | 54 | 1008.4 |
| 20260506040020 | 52 | 321 | 2.0 | 6.0 | 0.00 | 0.06 | 0.06 | 43 | 1010.6 |
| 20260506035504 | 52 | 333 | 1.0 | 5.0 | 0.00 | 0.06 | 0.06 | 44 | 1010.6 |
| 20260506035007 | 53 | 31 | 2.0 | 6.0 | 0.00 | 0.06 | 0.06 | 44 | 1010.4 |
| 20260506034603 | 70 | 266 | 3.0 | 5.0 | 0.00 | 0.00 | 0.00 | 54 | 1008.0 |
| 20260506034524 | 53 | 325 | 1.0 | 6.0 | 0.00 | 0.06 | 0.06 | 44 | 1010.5 |
| 20260506034007 | 52 | 338 | 1.0 | 7.0 | 0.00 | 0.06 | 0.06 | 45 | 1010.6 |
| 20260506033509 | 52 | 295 | 3.0 | 7.0 | 0.00 | 0.06 | 0.06 | 45 | 1010.4 |
| 20260506033108 | 70 | 262 | 2.0 | 6.0 | 0.00 | 0.00 | 0.00 | 54 | 1007.7 |
| 20260506033030 | 52 | 348 | 1.0 | 4.0 | 0.00 | 0.06 | 0.06 | 47 | 1010.3 |
| 20260506032506 | 53 | 333 | 0.0 | 1.0 | 0.00 | 0.06 | 0.06 | 48 | 1010.0 |
| 20260506032004 | 53 | 333 | 0.0 | 1.0 | 0.00 | 0.06 | 0.06 | 47 | 1009.9 |
| 20260506031552 | 71 | 43 | 0.0 | 3.0 | 0.00 | 0.00 | 0.00 | 52 | 1007.1 |
| 20260506031518 | 53 | 333 | 0.0 | 1.0 | 0.00 | 0.06 | 0.06 | 48 | 1009.9 |
| 20260506031004 | 53 | 333 | 0.0 | 1.0 | 0.00 | 0.06 | 0.06 | 51 | 1009.9 |
| 20260506030504 | 53 | 333 | 0.0 | 2.0 | 0.00 | 0.06 | 0.06 | 46 | 1009.9 |
| 20260506030058 | 72 | 296 | 0.0 | 5.0 | 0.00 | 0.00 | 0.00 | 53 | 1006.9 |
| 20260506030018 | 53 | 324 | 0.0 | 2.0 | 0.00 | 0.06 | 0.06 | 45 | 1009.9 |
| 20260506025506 | 53 | 286 | 0.0 | 2.0 | 0.00 | 0.06 | 0.06 | 46 | 1009.9 |
| 20260506025008 | 54 | 286 | 0.0 | 2.0 | 0.00 | 0.06 | 0.06 | 46 | 1010.0 |
| 20260506024600 | 74 | 278 | 1.0 | 3.0 | 0.00 | 0.00 | 0.00 | 53 | 1007.0 |
| 20260506024526 | 54 | 287 | 0.0 | 4.0 | 0.00 | 0.06 | 0.06 | 45 | 1010.0 |
| 20260506024012 | 54 | 261 | 1.0 | 4.0 | 0.00 | 0.06 | 0.06 | 41 | 1010.0 |
| 20260506023510 | 54 | 281 | 2.0 | 4.0 | 0.00 | 0.06 | 0.06 | 41 | 1010.1 |
| 20260506023044 | 75 | 323 | 0.0 | 5.0 | 0.00 | 0.00 | 0.00 | 52 | 1006.2 |
| 20260506023024 | 54 | 267 | 1.0 | 3.0 | 0.00 | 0.06 | 0.06 | 41 | 1010.1 |
| 20260506022513 | 54 | 317 | 0.0 | 4.0 | 0.00 | 0.06 | 0.06 | 44 | 1009.8 |
| 20260506022011 | 54 | 326 | 0.0 | 4.0 | 0.00 | 0.06 | 0.06 | 43 | 1009.7 |
| 20260506021552 | 77 | 281 | 2.0 | 5.0 | 0.00 | 0.00 | 0.00 | 57 | 1006.1 |
| 20260506021525 | 54 | 266 | 2.0 | 4.0 | 0.00 | 0.06 | 0.06 | 41 | 1009.8 |
| 20260506021003 | 54 | 261 | 0.0 | 4.0 | 0.00 | 0.06 | 0.06 | 40 | 1009.7 |
| 20260506020503 | 54 | 269 | 1.0 | 4.0 | 0.00 | 0.06 | 0.06 | 41 | 1009.6 |
| 20260506020042 | 79 | 117 | 0.0 | 5.0 | 0.00 | 0.00 | 0.00 | 57 | 1005.1 |
| 20260506020016 | 54 | 284 | 1.0 | 4.0 | 0.00 | 0.06 | 0.06 | 42 | 1009.5 |
| 20260506015504 | 54 | 325 | 1.0 | 4.0 | 0.00 | 0.06 | 0.06 | 41 | 1009.4 |
| 20260506015005 | 54 | 295 | 0.0 | 4.0 | 0.00 | 0.06 | 0.06 | 43 | 1009.2 |
| 20260506014537 | 80 | 128 | 3.0 | 6.0 | 0.00 | 0.00 | 0.00 | 56 | 1004.5 |
| 20260506014515 | 54 | 296 | 1.0 | 7.0 | 0.00 | 0.06 | 0.06 | 40 | 1009.3 |
| 20260506014007 | 54 | 271 | 2.0 | 8.0 | 0.00 | 0.06 | 0.06 | 40 | 1009.3 |
| 20260506013505 | 54 | 256 | 2.0 | 8.0 | 0.00 | 0.06 | 0.06 | 41 | 1009.3 |
| 20260506013039 | 80 | 113 | 4.0 | 9.0 | 0.00 | 0.00 | 0.00 | 56 | 1004.5 |
| 20260506013023 | 55 | 292 | 2.0 | 8.0 | 0.00 | 0.06 | 0.06 | 41 | 1009.0 |
| 20260506012507 | 55 | 325 | 2.0 | 8.0 | 0.00 | 0.06 | 0.06 | 40 | 1008.8 |
| 20260506012010 | 55 | 263 | 3.0 | 7.0 | 0.00 | 0.06 | 0.06 | 39 | 1009.0 |
| 20260506011558 | 81 | 132 | 4.0 | 10.0 | 0.00 | 0.00 | 0.00 | 55 | 1004.3 |
| 20260506011527 | 55 | 267 | 1.0 | 7.0 | 0.00 | 0.06 | 0.06 | 39 | 1009.0 |
| 20260506011009 | 55 | 286 | 2.0 | 7.0 | 0.00 | 0.06 | 0.06 | 39 | 1008.8 |
| 20260506010518 | 55 | 274 | 1.0 | 7.0 | 0.00 | 0.06 | 0.06 | 39 | 1008.6 |
| 20260506010047 | 55 | 329 | 2.0 | 6.0 | 0.00 | 0.06 | 0.06 | 39 | 1008.6 |
| 20260506010031 | 82 | 129 | 6.0 | 11.0 | 0.00 | 0.00 | 0.00 | 55 | 1004.2 |
| 20260506005504 | 55 | 279 | 1.0 | 4.0 | 0.00 | 0.06 | 0.06 | 40 | 1008.6 |
| 20260506005006 | 55 | 263 | 1.0 | 4.0 | 0.00 | 0.06 | 0.06 | 39 | 1008.6 |
| 20260506004539 | 83 | 128 | 5.0 | 13.0 | 0.00 | 0.00 | 0.00 | 54 | 1004.0 |
| 20260506004515 | 55 | 290 | 1.0 | 6.0 | 0.00 | 0.06 | 0.06 | 39 | 1008.6 |